sat.trackr.live / text

‹ back to catalog

HULIANWANG DIGUI-112

NORAD 66922 · 2025-285H

PAYLOAD ACTIVE UNKNOWN

§ Identity

Operator
Country
PRC
Launch date
2025-12-06
Launch site
WSC
Launch vehicle
Mass (kg)
RCS (m²)

External: N2YO · Heavens-Above · Gunter

§ Orbital elements

Epoch: 2026-09-19T00:23:54.719520Z

Period
108.33 min
Inclination
50.0080°
Eccentricity
0.0000122
Mean motion
13.29329157 rev/d
Perigee alt
1,149.2 km
Apogee alt
1,149.4 km
Semi-major
7,527.4 km
B*
6.5743e-5
RAAN
169.2724°
Arg perigee
249.8544°
Mean anomaly
110.2315°
Rev number
3,854

§ Raw data

HULIANWANG DIGUI-1121 66922U 25285H   26262.01660555 -.00000094  00000+0  65743-4 0  99952 66922  50.0080 169.2724 0000122 249.8544 110.2315 13.29329157 38547

JSON: /api/v1/satellites/66922 · /tle

For live sub-satellite position, see the globe view (requires WebGL).

§ Visibility from observer

Set your observer location to see the next 7 days of passes ≥ 10°. The values pass through the URL so the page stays shareable.

No JS? Fill the form by hand. The geolocation button needs JavaScript.